Regional Weather Roundup
Issued by NWS Albany, NY

Home | Current Version | Previous Version | Text Only | Print | Product List | Glossary On
Versions: 1 2 3 4 5 6 7 8 9 10 11 12 13 14 15 16 17 18 19 20 21 22 23 24 25 26 27 28 29 30 31 32 33 34 35 36 37 38 39 40 41 42 43 44 45 46 47 48 49 50
000
ASUS41 KALY 212010
RWRALY

NEW YORK STATE HOURLY WEATHER ROUNDUP
NATIONAL WEATHER SERVICE ALBANY NY
400 PM EDT FRI JUL 21 2017

NOTE: "FAIR" INDICATES FEW OR NO CLOUDS BELOW 12,000 FEET WITH NO
SIGNIFICANT WEATHER AND/OR NO OBSTRUCTIONS TO VISIBILITY.

NYZ032-033-038>043-046>054-057>066-NYZ062>081-082-084-212100-
EAST


CITY           SKY/WX    TMP DP  RH WIND       PRES   REMARKS
ALBANY         CLOUDY    85  64  49 W14       29.85S
GLENS FALLS    SUNNY     87  61  41 W10       29.80F
POUGHKEEPSIE   MOSUNNY   88  67  49 SW8       29.84F HX  91
NEWBURGH       MOSUNNY   88  68  51 W17G23    29.88F HX  91
MONTGOMERY     SUNNY     89  66  46 W13G20    29.86F HX  91
WHITE PLAINS   MOSUNNY   88  61  40 NW12      29.88R
ISLIP          CLOUDY    89  70  53 SW9       29.85S HX  94
NEW YORK CITY  PTSUNNY   93  63  36 W16G22    29.85S HX  94
CENTRAL PARK   MOSUNNY   89  65  44 VRB5      29.89S HX  91
$$

NYZ005>009-017-018-044>046-055-056-212100-
CENTRAL


CITY           SKY/WX    TMP DP  RH WIND       PRES   REMARKS
FULTON         CLOUDY    81  64  56 W13       29.90F
SYRACUSE       CLOUDY    82  66  58 W9        29.88F
ROME           CLOUDY    82  65  56 NW15      29.88F
ELMIRA         PTSUNNY   89  67  47 W12       29.89F HX  92
BINGHAMTON     MOSUNNY   80  66  62 SW8       29.94F
$$

NYZ026>034-041>043-087-212100-
NORTH


CITY           SKY/WX    TMP DP  RH WIND       PRES   REMARKS
WATERTOWN      SUNNY     78  69  73 W12G21    29.86F
FORT DRUM      NOT AVBL
OGDENSBURG     FAIR      82  67  59 SW10      29.82R
MASSENA        MOSUNNY   83  67  58 NW9       29.81F
SARANAC LAKE   SUNNY     79  56  45 VRB7G20   29.85F
PLATTSBURGH    MOSUNNY   86  62  44 NW10      29.76F
$$

NYZ001>004-010>016-019>021-085-212100-
WEST


CITY           SKY/WX    TMP DP  RH WIND       PRES   REMARKS
NIAGARA FALLS  SUNNY     86  62  44 NW13      29.92S
BUFFALO        CLOUDY    83  68  60 SW13      29.92F
DUNKIRK        CLOUDY    81  73  76 W8        29.95S
JAMESTOWN      CLOUDY    81  66  61 N9        29.99S
WELLSVILLE     MOSUNNY   83  63  50 W13       30.00S
ROCHESTER      CLOUDY    83  65  54 NW8       29.90F
PENN YAN       MOSUNNY   85  66  53 VRB7      29.92S
$$

             KEY
       WCI = WIND CHILL INDEX
       VSB = VISIBILITY
       HX  = HEAT INDEX
$$



USA.gov is the U.S. government's official web portal to all federal, state and local government web resources and services.